DW7002 Weather Reports


Display with metric or nautical units.
time (UTC)temp
F
wind
direction
speed
MPH
gust
MPH
rain 1hr
in
rain 24hr
in
rain mn
in
humidity
%
barometer
mb
20260506234134 71 240 0.0 0.0 0.00 0.02 0.02 83 1013.2
20260506233147 71 240 0.0 0.0 0.00 0.02 0.02 82 1013.0
20260506232118 71 240 1.0 2.0 0.00 0.02 0.02 81 1013.0
20260506231130 71 250 0.0 2.0 0.00 0.02 0.02 81 1013.3
20260506230127 71 251 0.0 2.0 0.00 0.02 0.02 80 1013.5
20260506225117 72 251 1.0 4.0 0.00 0.02 0.02 80 1013.4
20260506224129 72 282 1.0 3.0 0.00 0.02 0.02 80 1013.4
20260506223141 72 280 2.0 4.0 0.00 0.02 0.02 79 1013.5
20260506222118 72 267 3.0 6.0 0.00 0.02 0.02 78 1013.7
20260506221131 72 266 3.0 6.0 0.00 0.02 0.02 78 1013.5
20260506220122 72 284 3.0 7.0 0.00 0.02 0.02 77 1013.4
20260506215115 72 319 2.0 6.0 0.00 0.02 0.02 77 1013.1
20260506214127 72 244 3.0 7.0 0.00 0.02 0.02 77 1013.1
20260506213140 72 281 2.0 5.0 0.00 0.02 0.02 76 1012.9
20260506212151 72 307 3.0 11.0 0.00 0.02 0.02 76 1012.9
20260506211123 71 276 3.0 7.0 0.00 0.02 0.02 78 1013.2
20260506210118 71 283 3.0 6.0 0.00 0.02 0.02 78 1013.4
20260506205130 71 275 4.0 7.0 0.00 0.02 0.02 79 1013.5
20260506204122 70 280 3.0 9.0 0.00 0.02 0.02 80 1013.6
20260506203120 70 284 3.0 7.0 0.00 0.02 0.02 82 1013.5
20260506202132 69 290 4.0 8.0 0.00 0.02 0.02 81 1013.7
20260506201123 69 278 3.0 8.0 0.00 0.02 0.02 84 1013.4
20260506200115 68 280 2.0 7.0 0.00 0.02 0.02 85 1013.4
20260506195130 67 284 1.0 7.0 0.00 0.02 0.02 87 1013.5
20260506194124 67 169 2.0 6.0 0.00 0.02 0.02 88 1013.5
20260506193116 66 186 1.0 5.0 0.00 0.02 0.02 89 1013.5
20260506192148 66 204 1.0 6.0 0.00 0.02 0.02 89 1013.9
20260506191124 66 221 2.0 5.0 0.00 0.02 0.02 89 1013.9
20260506190135 66 302 4.0 9.0 0.01 0.02 0.02 89 1014.1
20260506185126 66 230 1.0 6.0 0.02 0.02 0.02 90 1014.0
20260506184123 66 213 2.0 4.0 0.02 0.02 0.02 90 1014.0
20260506183135 66 144 1.0 2.0 0.02 0.02 0.02 90 1013.8
20260506182125 66 225 1.0 3.0 0.02 0.02 0.02 89 1014.8
20260506181118 67 272 1.0 2.0 0.02 0.02 0.02 87 1015.2
20260506180135 68 267 1.0 2.0 0.01 0.01 0.01 84 1015.4
20260506175124 69 265 2.0 5.0 0.00 0.00 0.00 78 1016.1
20260506174117 70 293 2.0 5.0 0.00 0.00 0.00 77 1016.1
20260506173152 70 274 2.0 5.0 0.00 0.00 0.00 76 1015.6
20260506172127 69 306 1.0 5.0 0.00 0.00 0.00 76 1015.4
20260506171121 69 297 1.0 5.0 0.00 0.00 0.00 77 1015.4
20260506170132 69 281 1.0 6.0 0.00 0.00 0.00 76 1015.6
20260506165143 68 220 1.0 5.0 0.00 0.00 0.00 77 1015.5
20260506164119 67 68 0.0 2.0 0.00 0.00 0.00 78 1015.8
20260506163133 67 240 1.0 4.0 0.00 0.00 0.00 79 1015.9
20260506162146 66 266 2.0 3.0 0.00 0.00 0.00 78 1015.8
20260506161123 66 275 2.0 3.0 0.00 0.00 0.00 79 1015.6
20260506160135 66 268 0.0 4.0 0.00 0.00 0.00 79 1015.5
20260506155144 65 240 1.0 4.0 0.00 0.00 0.00 79 1015.3
20260506154116 65 186 1.0 4.0 0.00 0.00 0.00 78 1015.1
20260506153133 65 234 0.0 2.0 0.00 0.00 0.00 79 1015.6
20260506152127 65 280 1.0 5.0 0.00 0.00 0.00 78 1015.5
20260506151140 65 274 1.0 4.0 0.00 0.00 0.00 78 1015.5
20260506150131 65 209 1.0 5.0 0.00 0.00 0.00 78 1015.5
20260506145126 65 297 1.0 3.0 0.00 0.00 0.00 78 1015.7
20260506144119 65 254 1.0 5.0 0.00 0.00 0.00 77 1015.3
20260506143133 65 311 2.0 5.0 0.00 0.00 0.00 77 1015.3
20260506142147 65 286 2.0 5.0 0.00 0.00 0.00 77 1015.3
20260506141122 65 286 2.0 5.0 0.00 0.00 0.00 76 1015.2
20260506140114 65 257 2.0 7.0 0.00 0.00 0.00 76 1015.1
20260506135146 65 177 1.0 6.0 0.00 0.00 0.00 77 1015.0
20260506134115 65 105 1.0 6.0 0.00 0.00 0.00 76 1014.9
20260506133151 64 307 2.0 5.0 0.00 0.00 0.00 77 1014.8
20260506132123 64 213 2.0 5.0 0.00 0.00 0.00 77 1015.1
20260506131117 64 290 2.0 5.0 0.00 0.00 0.00 77 1015.1
20260506130126 64 217 1.0 4.0 0.00 0.00 0.00 77 1015.2
20260506125118 63 258 2.0 6.0 0.00 0.00 0.00 77 1015.5
20260506124151 63 263 3.0 6.0 0.00 0.00 0.00 77 1015.6
20260506123142 63 245 1.0 7.0 0.00 0.00 0.00 78 1015.8
20260506122133 63 255 2.0 5.0 0.00 0.00 0.00 78 1015.6
20260506121150 63 259 1.0 5.0 0.00 0.00 0.00 78 1015.4
20260506120138 63 267 2.0 5.0 0.00 0.00 0.00 79 1015.4
20260506115128 62 262 1.0 5.0 0.00 0.00 0.00 79 1015.3
20260506114122 62 265 3.0 5.0 0.00 0.00 0.00 79 1015.2
20260506113119 62 219 1.0 5.0 0.00 0.00 0.00 80 1015.1
20260506112132 62 259 1.0 4.0 0.00 0.00 0.00 80 1015.3
20260506111123 62 229 1.0 2.0 0.00 0.00 0.00 80 1014.9
20260506110120 62 293 1.0 4.0 0.00 0.00 0.00 80 1014.6
20260506105130 62 241 1.0 4.0 0.00 0.00 0.00 79 1014.5
20260506104121 62 304 2.0 3.0 0.00 0.00 0.00 79 1014.7
20260506103134 62 297 1.0 5.0 0.00 0.00 0.00 79 1014.6
20260506102131 62 268 2.0 6.0 0.00 0.00 0.00 79 1014.4
20260506101124 62 270 1.0 2.0 0.00 0.00 0.00 79 1014.4
20260506100117 62 257 2.0 4.0 0.00 0.00 0.00 78 1014.5
20260506095128 62 268 1.0 5.0 0.00 0.00 0.00 78 1014.6
20260506094145 62 220 1.0 5.0 0.00 0.00 0.00 78 1014.5
20260506093117 63 297 1.0 5.0 0.00 0.00 0.00 77 1014.7
20260506092131 63 276 2.0 3.0 0.00 0.00 0.00 77 1014.8
20260506091126 63 263 2.0 5.0 0.00 0.00 0.00 76 1014.9
20260506090116 63 136 3.0 5.0 0.00 0.00 0.00 76 1015.1
20260506085126 63 9 1.0 6.0 0.00 0.00 0.00 76 1015.0
20260506084141 63 113 2.0 6.0 0.00 0.00 0.00 75 1015.0
20260506083135 63 198 1.0 5.0 0.00 0.00 0.00 75 1015.3
20260506082127 63 187 1.0 5.0 0.00 0.00 0.00 75 1015.3
20260506081122 63 28 2.0 6.0 0.00 0.00 0.00 75 1015.3
20260506080155 63 284 2.0 4.0 0.00 0.00 0.00 75 1015.3
20260506073134 63 254 1.0 5.0 0.00 0.00 0.00 75 1015.0
20260506072129 63 187 1.0 4.0 0.00 0.00 0.00 75 1015.1
20260506071126 63 250 1.0 2.0 0.00 0.00 0.00 75 1015.3
20260506070118 63 260 1.0 2.0 0.00 0.00 0.00 75 1015.4
20260506062153 64 228 1.0 4.0 0.00 0.00 0.00 74 1015.5
20260506061145 64 165 2.0 6.0 0.00 0.00 0.00 74 1015.5
20260506060121 64 336 2.0 6.0 0.00 0.00 0.00 74 1015.6
20260506051127 65 153 1.0 5.0 0.00 0.00 0.00 72 1015.8
20260506050119 65 261 1.0 4.0 0.00 0.00 0.00 72 1015.9
20260506045129 65 169 1.0 5.0 0.00 0.00 0.00 72 1016.0
20260506044127 65 169 1.0 6.0 0.00 0.00 0.00 71 1015.9
20260506043120 66 192 1.0 8.0 0.00 0.00 0.00 71 1015.9
20260506042133 66 138 1.0 5.0 0.00 0.00 0.00 70 1016.0
20260506041128 66 171 2.0 7.0 0.00 0.00 0.00 69 1016.0
20260506040121 66 171 2.0 7.0 0.00 0.00 0.00 68 1015.9
20260506035133 66 198 3.0 7.0 0.00 0.00 0.00 67 1015.7
20260506034126 67 241 3.0 6.0 0.00 0.00 0.00 66 1015.7
20260506033122 67 163 2.0 7.0 0.00 0.00 0.00 65 1015.6
20260506032155 67 180 3.0 6.0 0.00 0.00 0.00 63 1015.9
20260506031147 67 183 3.0 6.0 0.00 0.00 0.00 60 1015.9
20260506030119 67 111 2.0 6.0 0.00 0.00 0.00 59 1015.9
20260506025133 67 173 2.0 5.0 0.00 0.00 0.00 59 1015.9
20260506024127 67 215 1.0 4.0 0.00 0.00 0.00 59 1015.8
20260506023119 67 243 0.0 2.0 0.00 0.00 0.00 59 1015.9
20260506022116 67 250 0.0 2.0 0.00 0.00 0.00 59 1016.0
20260506021129 67 250 1.0 2.0 0.00 0.00 0.00 58 1015.9
20260506020123 68 250 0.0 1.0 0.00 0.00 0.00 58 1015.9
20260506015133 68 250 0.0 1.0 0.00 0.00 0.00 56 1015.8
20260506014149 69 250 1.0 2.0 0.00 0.00 0.00 56 1015.8
20260506013120 69 250 0.0 1.0 0.00 0.00 0.00 54 1015.6
20260506012133 70 250 0.0 0.0 0.00 0.00 0.00 54 1015.6
20260506011124 70 250 0.0 1.0 0.00 0.00 0.00 52 1015.4
20260506010140 71 250 0.0 1.0 0.00 0.00 0.00 51 1015.3
20260506005150 71 250 0.0 2.0 0.00 0.00 0.00 51 1015.2
20260506004123 72 275 0.0 0.0 0.00 0.00 0.00 49 1015.2
20260506003116 72 275 0.0 1.0 0.00 0.00 0.00 48 1015.2
20260506002134 73 275 0.0 2.0 0.00 0.00 0.00 48 1015.1
20260506001127 74 250 1.0 2.0 0.00 0.00 0.00 47 1015.0
20260506000120 74 241 1.0 4.0 0.00 0.00 0.00 46 1014.9
20260505235131 75 241 1.0 5.0 0.00 0.00 0.00 46 1014.8